Find OneWeb SL0179

NORAD ID: 48212 Int'l Des: 2021-031 Owner: ONEWEBN Country: UK Constellation: oneweb operational
LEOCIRCULARPOLARONEWEB_TYPE

現在のビュー

3D地球を読み込み中...

About OneWeb SL0179

OneWeb SL0179 (NORAD 48212) is a oneweb constellation satellite launched Apr 25, 2021 by ONEWEBN of UK. It operates in LEO, CIRCULAR, POLAR, ONEWEB_TYPE orbit with a mass of 148.00 kg.

OneWeb SL0179について

説明を読み込み中...

次回通過

Passes for default location (London). Set your location on the main map for personalized predictions.

高度履歴

Loading altitude history...

軌道要素

1 48212U 21031C 26170.27097134 .00000108 00000-0 30011-4 0 9991
2 48212 87.8991 286.4705 0218840 250.3385 107.4077 14.25524002249345
Epoch: Jun 19, 2026 • Age: 7 hours

現在のステータス

高度 769.3 km
速度 7.50 km/s
衛星直下点 -39.10°S, 178.96°W
打ち上げ日 Apr 25, 2021
運用期間 5.1 years
タイプ internet

技術仕様

分類 Payload
質量 148.00 kg
乾燥質量 140.00 kg
総質量 148.00 kg
長さ 1.30 m
直径 1.00 m
スパン 5.00 m
形状 Trapezoid+2 pan
製造者 ONEWUS
バスタイプ ARROW
フェーズステータス In Orbit
所有者/国 ONEWEBN/UK

Most Searched